2023/08/09 00:00:00, 0.2,28.3
2023/08/09 00:10:00, 0.5,28.2
2023/08/09 00:20:00, 0.4,28.2
2023/08/09 00:30:00, 0.2,28.2
2023/08/09 00:40:00, 0.5,28.4
2023/08/09 00:50:00, 0.5,28.2
2023/08/09 01:00:00, 1.0,27.9
2023/08/09 01:10:00, 0.2,27.9
2023/08/09 01:20:00, 0.2,28.1
2023/08/09 01:30:00, 3.1,28.0
2023/08/09 01:40:00,12.2,27.5
2023/08/09 01:50:00, 5.8,27.5
2023/08/09 02:00:00, 0.5,27.9
2023/08/09 02:10:00, 0.7,28.0
2023/08/09 02:20:00, 3.8,27.6
2023/08/09 02:30:00, 5.9,27.8
2023/08/09 02:40:00,11.6,27.7
2023/08/09 02:50:00, 8.7,27.8
2023/08/09 03:00:00, 5.9,27.8
2023/08/09 03:10:00, 2.8,27.8
2023/08/09 03:20:00, 6.2,28.0
2023/08/09 03:30:00, 3.9,28.0
2023/08/09 03:40:00, 0.2,28.3
2023/08/09 03:50:00, 0.2,28.0
2023/08/09 04:00:00, 0.2,28.2
2023/08/09 04:10:00, 0.5,28.7
2023/08/09 04:20:00, 0.2,28.3
2023/08/09 04:30:00, 0.8,28.4
2023/08/09 04:40:00, 3.6,28.5
2023/08/09 04:50:00, 4.1,28.8
2023/08/09 05:00:00, 0.5,28.7
2023/08/09 05:10:00, 0.1,28.5
2023/08/09 05:20:00, 0.1,28.5
2023/08/09 05:30:00, 2.8,28.2
2023/08/09 05:40:00, 2.5,28.7
2023/08/09 05:50:00, 1.9,28.6
2023/08/09 06:00:00, 7.2,28.6
2023/08/09 06:10:00, 5.8,28.9
2023/08/09 06:20:00, 6.2,29.4
2023/08/09 06:30:00, 5.6,29.6
2023/08/09 06:40:00, 5.0,29.8
2023/08/09 06:50:00, 5.8,30.2
2023/08/09 07:00:00, 3.5,30.5
2023/08/09 07:10:00, 5.6,30.8
2023/08/09 07:20:00, 4.4,30.8
2023/08/09 07:30:00, 2.3,31.0
2023/08/09 07:40:00, 6.1,31.2
2023/08/09 07:50:00, 4.1,31.2
2023/08/09 08:00:00, 0.5,31.6
2023/08/09 08:10:00, 3.4,31.8
2023/08/09 08:20:00, 1.5,31.7
2023/08/09 08:30:00, 0.4,32.5
2023/08/09 08:40:00, 2.4,32.3
2023/08/09 08:50:00, 3.8,32.7
2023/08/09 09:00:00, 3.6,33.5
2023/08/09 09:10:00, 3.9,33.8
2023/08/09 09:20:00, 1.3,32.9
2023/08/09 09:30:00, 3.0,33.2
2023/08/09 09:40:00, 2.4,33.9
2023/08/09 09:50:00, 0.4,33.7
2023/08/09 10:00:00, 0.4,33.6
2023/08/09 10:10:00, 0.4,34.3
2023/08/09 10:20:00, 0.3,34.0
2023/08/09 10:30:00, 0.6,34.5
2023/08/09 10:40:00, 0.3,34.7
2023/08/09 10:50:00, 0.3,35.6
2023/08/09 11:00:00, 0.4,35.3
2023/08/09 11:10:00, 0.4,35.2
2023/08/09 11:20:00, 0.4,35.7
2023/08/09 11:30:00, 0.4,34.9
2023/08/09 11:40:00, 0.3,34.9
2023/08/09 11:50:00, 0.3,35.4
2023/08/09 12:00:00, 0.3,35.8
2023/08/09 12:10:00, 0.3,36.0
2023/08/09 12:20:00, 0.5,35.7
2023/08/09 12:30:00, 0.5,35.9
2023/08/09 12:40:00, 0.4,35.1
2023/08/09 12:50:00, 0.4,35.1
2023/08/09 13:00:00, 0.4,35.4
2023/08/09 13:10:00, 0.3,35.6
2023/08/09 13:20:00, 0.3,35.4
2023/08/09 13:30:00, 0.4,36.0
2023/08/09 13:40:00, 0.3,35.4
2023/08/09 13:50:00, 0.4,35.6
2023/08/09 14:00:00, 0.3,35.8
2023/08/09 14:10:00, 0.3,36.2
2023/08/09 14:20:00, 0.3,36.0
2023/08/09 14:30:00, 0.4,35.1
2023/08/09 14:40:00, 0.5,35.7
2023/08/09 14:50:00, 0.9,35.4
2023/08/09 15:00:00, 3.6,34.9
2023/08/09 15:10:00, 3.1,35.9
2023/08/09 15:20:00, 0.3,35.4
2023/08/09 15:30:00, 0.4,34.9
2023/08/09 15:40:00, 0.4,34.8
2023/08/09 15:50:00, 0.3,34.3
2023/08/09 16:00:00, 0.3,34.1
2023/08/09 16:10:00, 0.3,34.2
2023/08/09 16:20:00, 0.3,33.8
2023/08/09 16:30:00, 0.3,33.0
2023/08/09 16:40:00, 0.5,33.0
2023/08/09 16:50:00, 0.3,33.6
2023/08/09 17:00:00, 0.4,33.6
2023/08/09 17:10:00, 0.4,32.7
2023/08/09 17:20:00, 0.3,32.7
2023/08/09 17:30:00, 1.3,32.1
2023/08/09 17:40:00, 0.5,31.8
2023/08/09 17:50:00, 0.5,31.6
2023/08/09 18:00:00, 0.4,31.5
2023/08/09 18:10:00, 0.5,30.7
2023/08/09 18:20:00, 0.4,30.3
2023/08/09 18:30:00, 0.7,30.2
2023/08/09 18:40:00, 0.9,30.0
2023/08/09 18:50:00, 0.7,29.8
2023/08/09 19:00:00, 0.4,29.6
2023/08/09 19:10:00, 0.4,29.4
2023/08/09 19:20:00, 0.3,29.3
2023/08/09 19:30:00, 0.3,29.5
2023/08/09 19:40:00, 0.4,29.3
2023/08/09 19:50:00, 0.9,29.1
2023/08/09 20:00:00, 1.3,29.1
2023/08/09 20:10:00, 0.3,29.3
2023/08/09 20:20:00, 0.3,29.1
2023/08/09 20:30:00, 0.2,28.9
2023/08/09 20:40:00, 0.2,28.8
2023/08/09 20:50:00, 0.3,28.7
2023/08/09 21:00:00, 0.3,29.0
2023/08/09 21:10:00, 0.5,28.8
2023/08/09 21:20:00, 0.2,28.7
2023/08/09 21:30:00, 0.2,28.7
2023/08/09 21:40:00, 0.5,28.8
2023/08/09 21:50:00, 0.6,28.7
2023/08/09 22:00:00, 0.3,28.6
2023/08/09 22:10:00, 0.2,28.7
2023/08/09 22:20:00, 0.3,29.2
2023/08/09 22:30:00, 0.3,28.6
2023/08/09 22:40:00, 0.4,28.5
2023/08/09 22:50:00, 0.3,28.7
2023/08/09 23:00:00, 0.4,28.6
2023/08/09 23:10:00, 0.3,28.8
2023/08/09 23:20:00, 0.3,28.8
2023/08/09 23:30:00, 0.3,28.4
2023/08/09 23:40:00, 0.8,28.6
2023/08/09 23:50:00, 0.4,28.5
